GW0115 Weather Reports


Display with metric or nautical units.
time (UTC)temp
F
wind
direction
speed
MPH
gust
MPH
rain 1hr
in
rain 24hr
in
rain mn
in
humidity
%
barometer
mb
20260906100056 58 0 0.0 0.0 0.00 0.00 0.00 86 1015.5
20260906094557 59 0 0.0 0.0 0.00 0.00 0.00 85 1015.4
20260906093057 59 0 0.0 0.0 0.00 0.00 0.00 85 1015.3
20260906091551 60 0 0.0 2.0 0.00 0.00 0.00 86 1015.2
20260906090109 60 0 0.0 0.0 0.00 0.00 0.00 86 1015.0
20260906084603 60 0 0.0 1.0 0.00 0.00 0.00 87 1014.8
20260906083103 61 0 0.0 2.0 0.00 0.00 0.00 86 1014.6
20260906081555 61 0 0.0 4.0 0.00 0.00 0.00 85 1014.6
20260906080106 61 0 0.0 8.0 0.00 0.00 0.00 84 1014.6
20260906074556 62 0 0.0 2.0 0.00 0.00 0.00 84 1014.4
20260906073057 62 0 0.0 0.0 0.00 0.00 0.00 84 1014.3
20260906071554 62 0 0.0 0.0 0.00 0.00 0.00 84 1014.2
20260906070057 62 0 0.0 0.0 0.00 0.00 0.00 84 1013.9
20260906064555 63 0 0.0 0.0 0.00 0.00 0.00 83 1013.9
20260906063057 63 0 0.0 0.0 0.00 0.00 0.00 84 1013.8
20260906061556 63 0 0.0 0.0 0.00 0.00 0.00 84 1013.9
20260906060133 63 0 0.0 0.0 0.00 0.00 0.00 85 1013.9
20260906054613 63 0 0.0 0.0 0.00 0.00 0.00 85 1013.9
20260906053055 63 0 0.0 0.0 0.00 0.00 0.00 85 1013.8
20260906051605 63 0 0.0 0.0 0.00 0.00 0.00 86 1014.0
20260906050109 63 0 0.0 0.0 0.00 0.00 0.00 86 1013.9
20260906044556 63 0 0.0 0.0 0.00 0.00 0.00 85 1014.0
20260906043057 64 0 0.0 0.0 0.00 0.00 0.00 84 1014.0
20260906041553 64 0 0.0 0.0 0.00 0.00 0.00 83 1014.0
20260906034601 64 0 0.0 0.0 0.00 0.00 0.00 83 1013.9
20260906033054 65 0 0.0 0.0 0.00 0.00 0.00 83 1013.8
20260906031617 65 0 0.0 0.0 0.00 0.00 0.00 83 1013.7
20260906030056 65 0 0.0 0.0 0.00 0.00 0.00 83 1013.6
20260906024556 65 0 0.0 0.0 0.00 0.00 0.00 83 1013.6
20260906023109 65 0 0.0 0.0 0.00 0.00 0.00 83 1013.5
20260906021558 64 0 0.0 5.0 0.00 0.00 0.00 83 1013.5
20260906020059 64 0 0.0 0.0 0.00 0.00 0.00 83 1013.5
20260906014553 65 0 0.0 0.0 0.00 0.00 0.00 83 1013.5
20260906013058 65 0 0.0 1.0 0.00 0.00 0.00 82 1013.6
20260906011603 65 0 0.0 1.0 0.00 0.00 0.00 83 1013.6
20260906010059 65 0 0.0 0.0 0.00 0.00 0.00 83 1013.5
20260906004602 65 0 0.0 0.0 0.00 0.00 0.00 83 1013.4
20260906003058 65 0 0.0 3.0 0.00 0.00 0.00 84 1013.3
20260906001554 65 0 0.0 0.0 0.00 0.00 0.00 84 1013.3
20260906000110 66 0 0.0 0.0 0.00 0.00 0.00 81 1013.3
20260905234559 66 0 0.0 0.0 0.00 0.00 0.00 81 1013.0
20260905233102 66 0 0.0 0.0 0.00 0.00 0.00 80 1013.1
20260905231605 67 0 0.0 1.0 0.00 0.00 0.00 79 1012.8
20260905230136 67 0 0.0 0.0 0.00 0.00 0.00 79 1012.7
20260905224555 67 0 0.0 0.0 0.00 0.00 0.00 79 1012.7
20260905223055 68 0 0.0 0.0 0.00 0.00 0.00 79 1012.7
20260905221624 68 0 0.0 0.0 0.00 0.00 0.00 77 1012.7
20260905220056 69 0 0.0 0.0 0.00 0.00 0.00 76 1012.5
20260905214602 69 0 0.0 0.0 0.00 0.00 0.00 75 1012.2
20260905213105 69 0 0.0 4.0 0.00 0.00 0.00 74 1012.1
20260905211556 70 0 0.0 0.0 0.00 0.00 0.00 76 1012.0
20260905210104 70 0 0.0 6.0 0.00 0.00 0.00 74 1011.8
20260905204552 70 0 0.0 4.0 0.00 0.00 0.00 73 1011.7
20260905203100 70 0 0.0 5.0 0.00 0.00 0.00 73 1011.6
20260905201556 71 0 0.0 6.0 0.00 0.00 0.00 74 1011.6
20260905200126 71 0 0.0 6.0 0.00 0.00 0.00 72 1011.6
20260905194553 72 0 0.0 3.0 0.00 0.00 0.00 70 1011.6
20260905193059 71 0 0.0 5.0 0.00 0.00 0.00 71 1011.5
20260905191554 71 0 0.0 1.0 0.00 0.00 0.00 70 1011.5
20260905190056 72 345 0.0 4.0 0.00 0.00 0.00 68 1011.6
20260905184603 73 0 0.0 6.0 0.00 0.00 0.00 71 1011.6
20260905183057 74 0 0.0 9.0 0.00 0.00 0.00 69 1011.6
20260905181555 73 0 1.0 7.0 0.00 0.00 0.00 69 1011.6
20260905180114 71 0 0.0 4.0 0.00 0.00 0.00 72 1011.7
20260905174557 71 0 0.0 7.0 0.00 0.00 0.00 74 1011.7
20260905173113 71 0 0.0 6.0 0.00 0.00 0.00 74 1011.8
20260905171556 71 0 0.0 10.0 0.00 0.00 0.00 74 1011.8
20260905164611 71 0 0.0 8.0 0.00 0.00 0.00 76 1011.9
20260905163104 71 0 1.0 8.0 0.00 0.00 0.00 77 1011.9
20260905161600 70 0 0.0 2.0 0.00 0.00 0.00 80 1012.2
20260905160107 69 0 0.0 6.0 0.00 0.00 0.00 81 1012.2
20260905154604 68 0 0.0 6.0 0.00 0.00 0.00 83 1012.2
20260905153053 67 0 0.0 4.0 0.00 0.00 0.00 85 1012.4
20260905151601 67 0 0.0 2.0 0.00 0.00 0.00 86 1012.6
20260905150055 66 0 0.0 0.0 0.00 0.00 0.00 90 1012.5
20260905144555 66 0 0.0 0.0 0.00 0.00 0.00 88 1012.4
20260905143052 66 0 0.0 0.0 0.00 0.00 0.00 85 1012.3
20260905141554 66 0 0.0 0.0 0.00 0.00 0.00 86 1012.2
20260905134606 66 0 0.0 0.0 0.00 0.00 0.00 86 1012.4
20260905133100 65 0 0.0 0.0 0.00 0.00 0.00 86 1012.3
20260905131601 64 0 0.0 0.0 0.00 0.00 0.00 88 1012.1
20260905130101 64 0 0.0 0.0 0.00 0.00 0.00 89 1012.0
20260905124606 63 0 0.0 0.0 0.00 0.00 0.00 90 1012.0
20260905123102 62 0 0.0 0.0 0.00 0.00 0.00 92 1011.7
20260905121606 61 0 0.0 0.0 0.00 0.00 0.00 93 1011.6
20260905120107 60 0 0.0 0.0 0.00 0.00 0.00 93 1011.4
20260905114609 59 0 0.0 0.0 0.00 0.00 0.00 93 1011.3
20260905113102 59 0 0.0 0.0 0.00 0.00 0.00 93 1011.3
20260905111651 58 0 0.0 0.0 0.00 0.00 0.00 93 1011.2
20260905104601 58 0 0.0 0.0 0.00 0.00 0.00 92 1010.9
20260905103105 58 0 0.0 0.0 0.00 0.00 0.00 92 1010.8
20260905101602 58 0 0.0 0.0 0.00 0.00 0.00 93 1010.8